Preview of NWS' New Version of Forecast
This preview is not operational and should not be used for support decisions.

Regional Weather Roundup (RWR)

Issued by National Weather Service (NWS)

                            
000
ASUS43 KDMX 210001
RWRIA 

WEATHER ROUNDUP FOR IOWA
NATIONAL WEATHER SERVICE DES MOINES IA
600 PM CST WED FEB 20 2019

NOTE: "FAIR" INDICATES FEW OR NO CLOUDS BELOW 12,000 FEET WITH NO
SIGNIFICANT WEATHER AND/OR OBSTRUCTIONS TO VISIBILITY.

* - THESE STATIONS ARE NOT NWS STATIONS...THUS NOT UNDER NWS
QUALITY CONTROL.  THEY ALSO DO NOT REPORT WEATHER SUCH 
AS PRECIPITATION OR FOG.  

IAZ001>003-012>014-020>022-031>034-043>046-210100-
   NORTHWEST IOWA
  
CITY           SKY/WX    TMP DP  RH WIND       PRES   REMARKS
CARROLL *      CLEAR     21  16  79 W12       29.74R WCI   9          
CHEROKEE *     PTCLDY    19  15  87 SW7       29.72R WCI   9          
DENISON *      CLEAR     23  16  74 SW9       29.76R WCI  13          
LE MARS *      MOCLDY    18  16  93 W5        29.72R WCI  11          
ORANGE CITY *  PTCLDY    18  16  93 W9        29.70R WCI   6          
SHELDON *      PTCLDY    16  16 100 SW15      29.67R WCI   1          
SIOUX CITY     CLEAR     20  13  74 W10       29.75R WCI   9          
6HR MIN TEMP:  19; 6HR MAX TEMP:  24; 6HR PCP: TRACE;                

SPENCER        MOCLDY    19  13  77 W14       29.68R WCI   6          
6HR MIN TEMP:  19; 6HR MAX TEMP:  27; 6HR PCP: TRACE;                

STORM LAKE *   CLOUDY    19  18  93 W17       29.70R WCI   4          
$$
 
IAZ055>058-069>071-079>083-090>094-210100-
   SOUTHWEST IOWA
  
CITY           SKY/WX    TMP DP  RH WIND       PRES   REMARKS
ATLANTIC *     CLEAR     23  19  86 SW10      29.78R WCI  12          
AUDUBON *      CLEAR     21  16  79 CALM      29.76R                  
CLARINDA *     CLEAR     25  18  74 SW9       29.85R WCI  15          
COUNCIL BLFS * CLEAR     27  19  74 SW16      29.77R WCI  14          
CRESTON *      CLEAR     25  19  80 SW12      29.80R WCI  14          
HARLAN  *      CLEAR     21  16  79 SW6       29.77R WCI  14          
LAMONI         CLEAR     28  19  69 SW18      29.81R WCI  15          
6HR MIN TEMP:  28; 6HR MAX TEMP:  32;                                

RED OAK *      CLEAR     25  19  80 S8        29.81R WCI  16          
SHENANDOAH *   CLEAR     25  19  80 SW7       29.83R WCI  17          
$$
 
IAZ047>049-059>061-072>074-084-210100-
   CENTRAL IOWA
  
CITY           SKY/WX    TMP DP  RH WIND       PRES   REMARKS
AMES           PTCLDY    25  18  74 SW15      29.75R WCI  13          
6HR MIN TEMP:  25; 6HR MAX TEMP:  31; 6HR PCP: TRACE;                

ANKENY *       CLEAR     28  19  69 W17       29.79R WCI  16          
BOONE *        MIX PCPN  25  21  86 W15G23    29.73R WCI  12          
CHARITON *     CLEAR     28  21  74 SW14G21   29.79R WCI  17          
DES MOINES     PTCLDY    26  19  74 SW17      29.78R WCI  13          
6HR MIN TEMP:  26; 6HR MAX TEMP:  32; 6HR PCP: TRACE;                

GRINNELL*      CLOUDY    30  25  82 SW18      29.75R WCI  18          
KNOXVILLE *    CLEAR     28  23  80 SW17      29.79R WCI  16          
MARSHALLTOWN   CLOUDY    28  22  78 W17G29    29.73R WCI  16          
6HR MIN TEMP:  28; 6HR MAX TEMP:  31; 6HR PCP:  0.14;                

NEWTON *       MOCLDY    28  21  74 W20G26    29.76R WCI  15          
PELLA *        PTCLDY    30  20  65 W15G24    29.79R WCI  19          
PERRY *        FAIR      23  18  82 SW10      29.77R WCI  12          
$$
 
IAZ004>006-015-016-023>025-035-036-210100-
   NORTH CENTRAL IOWA
  
CITY           SKY/WX    TMP DP  RH WIND       PRES   REMARKS
ALGONA *       CLOUDY    21  19  93 W17       29.69R FOG     WCI   7  
CLARION *      PTCLDY    21  18  86 W17       29.71R FOG     WCI   7  
ESTHERVILLE    CLOUDY    18  14  84 W16       29.67R FOG     WCI   3  
6HR MIN TEMP:  17; 6HR MAX TEMP:  26; 6HR PCP:  0.01;                

FORT DODGE *   CLEAR     21  16  81 SW14      29.73R WCI   8          
MASON CITY     CLOUDY    24  20  84 SW22G31   29.68R FOG     WCI   9  
6HR MIN TEMP:  24; 6HR MAX TEMP:  30; 6HR PCP:  0.01;                

FOREST CITY *  CLOUDY    25  21  86 SW15G22   29.67R WCI  12          
IOWA FALLS *   FAIR      25  21  84 SW20      29.73R WCI  11          
$$

IAZ007>011-017>019-026>030-037>042-050>054-066-210100-
   NORTHEAST IOWA
  
CITY           SKY/WX    TMP DP  RH WIND       PRES   REMARKS
CEDAR RAPIDS   CLOUDY    31  25  78 SW21G32   29.73R WCI  18          
6HR MIN TEMP:  31; 6HR MAX TEMP:  33; 6HR PCP: TRACE;                

CHARLES CITY * MOCLDY    28  21  74 W21G29    29.68R WCI  15          
CLINTON *      CLOUDY    34  31  88 W18       29.74R WCI  23          
DECORAH *      LGT SNOW  28  28 100 W9G17     29.65R WCI  20          
DUBUQUE        CLOUDY    32  27  81 SW17      29.68R WCI  21          
6HR MIN TEMP:  31; 6HR MAX TEMP:  33; 6HR PCP:  0.01;                

OELWEIN *      CLOUDY    28  27  93 SW14G22   29.70R WCI  17          
WATERLOO       CLOUDY    30  24  78 SW18G28   29.71R WCI  18          
6HR MIN TEMP:  30; 6HR MAX TEMP:  32; 6HR PCP:  0.02;                

$$
 
IAZ064-065-067-068-078-210100-
   EAST CENTRAL IOWA
  
CITY           SKY/WX    TMP DP  RH WIND       PRES   REMARKS
DAVENPORT      CLOUDY    35  29  78 W16       29.77R WCI  25          
6HR MIN TEMP:  33; 6HR MAX TEMP:  35;                                

IOWA CITY      CLOUDY    34  25  69 W16G24    29.78R WCI  24          
6HR MIN TEMP:  33; 6HR MAX TEMP:  35;                                

MT. PLEASANT * CLOUDY    36  28  75 W21G28    29.80R WCI  24          
MUSCATINE *    CLOUDY    36  27  69 W20G29    29.79R WCI  25          
QUAD CITIES    CLOUDY    36  31  82 W13G22    29.76R WCI  27          
6HR MIN TEMP:  35; 6HR MAX TEMP:  36;                                

$$
 
IAZ062-063-075>077-085>089-095>099-210100-
   SOUTHEAST IOWA
  
CITY           SKY/WX    TMP DP  RH WIND       PRES   REMARKS
BURLINGTON     CLOUDY    35  28  75 W13       29.80R WCI  26          
6HR MIN TEMP:  33; 6HR MAX TEMP:  36;                                

FAIRFIELD *    CLOUDY    34  23  64 W16G23    29.80R WCI  23          
FORT MADISON * MOCLDY    36  27  69 W14       29.82R WCI  27          
KEOKUK *       CLOUDY    36  28  75 W15G22    29.82R WCI  26          
OSKALOOSA *    CLOUDY    31  24  75 W20G29    29.79R WCI  19          
OTTUMWA        MOCLDY    32  23  69 W17       29.79R WCI  21          
6HR MIN TEMP:  32; 6HR MAX TEMP:  35;                                

WASHINGTON *   CLOUDY    34  27  75 SW20      29.79R WCI  22          
$$

ABBREVIATIONS USED IN REMARKS
   TC - TEMPERATURES IN CELSIUS
  WCI - WIND CHILL INDEX
   HX - HEAT INDEX
  VSB - VISIBILITY  
$$